Showing default

CALSPHERE 1, 900

Orbit data source: Space-Track

CALSPHERE 1, 900 is a payload satellite owned by NRL (US) in LEO that was launched on Tue, 06 Oct 1964 UTC via a THOR ABLESTAR launch vehicle from the Air Force Western Test Range (AFWTR). Payload-class satellites include a variety of spacecraft equipped with specific instruments for various scientific and technological missions. These include communications satellites like Starlink; space stations such as the ISS; scientific satellites like the Hubble; Earth observation satellites from companies like Planet Labs, Umbra, and HawkEye 360; GPS; miniature CubeSats for education and research; and military/defense satellites.

Loading next visibility...
Identifier
900, 1964-063C
Orbit
LEO
Country
Flag of USUS
Related business
Manufacturer
NRL
Mission
Operational Defense Calibration
Bus & Motor
NRL 14", Unknown motor
Mass
1 kg wet, 1 kg dry
Launch date (UTC)
1964-10-06 (61 years ago)
Launch vehicle
THOR ABLESTAR
Launch site
Air Force Western Test Range (AFWTR)
Object type
Payload
Rocket body
Debris
Shape & HBR
Sphere, 0.2 m
Radar Cross Section
0.102 m², Small (<0.1 m²)

Expand to show TLE details & history
Last TLE update: 10 hours ago

TLE from 10 hours ago
0 CALSPHERE 1
1 00900U 64063C   25260.93231028  .00000597  00000-0  60255-3 0  9993
2 00900  90.2139  65.4781 0026482  40.3304  82.1755 13.76190799 33974
Epoch: 2025-09-17T22:22Z
TLE epoch observation values (Epoch: 2025-09-17T22:22:31.608Z)
Latitude
57.28657°
Longitude
-86.92348°
Altitude
984.532 km
Speed
7.366 km/s
True Right ascension
16h 23m 14s
True Declination
57° 08' 05"
Sunlit
Object was in daylight at epoch
Visualization orbit readout
Latitude
Unknown
Longitude
Unknown
Altitude
Unknown
Speed
Unknown
Apparent Right ascension
Unknown
Apparent Declination
Unknown
Sunlit
N/A
Visualization observer readout
Local Sidereal Time
01:28:17
Azimuth
Unknown
Elevation
Unknown
Doppler factor
Unknown
Orbital elements
Apogee altitude
993.911 km
Perigee altitude
954.969 km
Semi-major axis
7,352.577 km
Eccentricity
0.00265
Inclination
90.2139°
RAAN
65.4781°
Arg. of periapsis
40.3304°
True anomaly
82.47627°
Mean anomaly
82.1755°
Eccentric anomaly
82.32587°
Mean motion
3.44258 °/min
Orbital period
104.57 mins
BSTAR
0.00060255
Loading maneuver chart data...
Computing Atmospheric mass density...
Loading historical data...
Loading historical data...
Loading historical data...
Loading historical data...
Loading historical data...
Loading historical data...
Loading historical data...

Documentation

Showing up to 5 results
|